Tracking 25703 objects as of 2-Jul-2022
HD Live streaming from Space Station
objects crossing your sky now

YZ-1S DEB

Track YZ-1S DEB now!
10-day predictions


NORAD ID: 49385
Int'l Code: 2021-099C
Perigee: 693.4 km
Apogee: 704.4 km
Inclination: 98.1 °
Period: 98.6 minutes
Semi major axis: 7069 km
RCS: Unknown
Launch date: November 3, 2021
Source: People's Republic of China (PRC)
Launch site: Jiuquan Satellite Launch Center, China (JSC)

Note: This is SATELLITE DEBRIS
aabbcc
Your satellite tracking list
Your tracking list is empty




NASA's NSSDC Master Catalog

Two Line Element Set (TLE):
1 49385U 21099C   22182.83416997  .00000539  00000-0  12078-3 0  9990
2 49385  98.1215 307.9923 0007749 222.7156 137.3443 14.60440561 35095
Source of the keplerian elements: AFSPC